sat.trackr.live / text

‹ back to catalog

STARLINK-5773

NORAD 57074 · 2023-088AC

PAYLOAD ACTIVE UNKNOWN

§ Identity

Operator
Country
US
Launch date
2023-06-22
Launch site
AFWTR
Launch vehicle
Mass (kg)
RCS (m²)

Purposes: comms

External: N2YO · Heavens-Above · Gunter

§ Orbital elements

Epoch: 2026-05-25T00:18:27.978048Z

Period
94.27 min
Inclination
43.0045°
Eccentricity
0.0000905
Mean motion
15.27583537 rev/d
Perigee alt
482.4 km
Apogee alt
483.7 km
Semi-major
6,861.2 km
B*
4.5124e-5
RAAN
43.1511°
Arg perigee
239.1450°
Mean anomaly
120.9313°
Rev number
16,196

§ Raw data

STARLINK-57731 57074U 23088AC  26145.01282382  .00000980  00000+0  45124-4 0  99942 57074  43.0045  43.1511 0000905 239.1450 120.9313 15.27583537161962

JSON: /api/v1/satellites/57074 · /tle

For live sub-satellite position, see the globe view (requires WebGL).

§ Visibility from observer

Set your observer location to see the next 7 days of passes ≥ 10°. The values pass through the URL so the page stays shareable.

No JS? Fill the form by hand. The geolocation button needs JavaScript.